When you browse on this site, cookies collect data to enhance your experience and personalize the content and advertising you see.
Visit our Privacy Policy to learn more. By continuing to use the site, you agree to this use of cookies and data.
  • In Switzerland
  • List of Countries
  • For 7 days
  • Water Temperature
  • Weather Map
  • Weather Widgets
  • user-avatar
    Login

    Hourly Weather Dijon

    Today, 12 November, Tuesday

    Time Temperature Precipitation Wind Pressure Humidity
    00:00 +1°C° 0 mm 3 mps 733 mmHg 94%
    01:00 +1°C° 0 mm 3 mps 732 mmHg 95%
    02:00 +1°C° 0 mm 3 mps 732 mmHg 95%
    03:00 0°C° 0 mm 3 mps 732 mmHg 96%
    04:00 0°C° 0 mm 3 mps 732 mmHg 96%
    05:00 -1°C° 0 mm 4 mps 732 mmHg 96%
    06:00 -1°C° 0 mm 4 mps 731 mmHg 94%
    07:00 0°C° 0 mm 4 mps 731 mmHg 92%
    08:00 +1°C° 0 mm 5 mps 731 mmHg 90%
    09:00 +2°C° 0 mm 5 mps 731 mmHg 87%
    10:00 +3°C° 0 mm 5 mps 731 mmHg 85%
    11:00 +5°C° 0 mm 5 mps 730 mmHg 82%
    12:00 +6°C° 0 mm 5 mps 730 mmHg 79%
    13:00 +6°C° 0.2 mm 5 mps 730 mmHg 80%
    14:00 +6°C° 0.2 mm 4 mps 729 mmHg 81%
    15:00 +6°C° 0.2 mm 4 mps 729 mmHg 82%
    16:00 +5°C° 0.3 mm 3 mps 729 mmHg 86%
    17:00 +4°C° 0.3 mm 3 mps 729 mmHg 89%
    18:00 +5°C° 0.3 mm 2 mps 729 mmHg 92%
    19:00 +4°C° 0.1 mm 2 mps 729 mmHg 93%
    20:00 +3°C° 0.1 mm 2 mps 729 mmHg 94%
    21:00 +3°C° 0.1 mm 2 mps 728 mmHg 94%
    22:00 +3°C° 0 mm 1 mps 728 mmHg 94%
    23:00 +3°C° 0 mm 1 mps 728 mmHg 95%

    Tomorrow, 13 November, Wednesday

    Time Temperature Precipitation Wind Pressure Humidity
    00:00 +2°C° 0 mm 1 mps 728 mmHg 95%
    01:00 +2°C° 0 mm 1 mps 728 mmHg 95%
    02:00 +1°C° 0 mm 1 mps 728 mmHg 95%
    03:00 +1°C° 0 mm 1 mps 728 mmHg 95%
    04:00 +1°C° 0 mm 1 mps 728 mmHg 95%
    05:00 +1°C° 0 mm 1 mps 728 mmHg 94%
    06:00 +1°C° 0 mm 1 mps 728 mmHg 94%
    07:00 +2°C° 0 mm 1 mps 728 mmHg 91%
    08:00 +3°C° 0 mm 1 mps 729 mmHg 88%
    09:00 +3°C° 0 mm 2 mps 729 mmHg 86%
    10:00 +4°C° 0 mm 2 mps 729 mmHg 84%
    11:00 +5°C° 0 mm 2 mps 729 mmHg 82%
    12:00 +6°C° 0 mm 2 mps 729 mmHg 81%
    13:00 +6°C° 0 mm 2 mps 728 mmHg 83%
    14:00 +4°C° 0 mm 3 mps 728 mmHg 85%
    15:00 +4°C° 0 mm 3 mps 728 mmHg 87%
    16:00 +4°C° 0 mm 3 mps 728 mmHg 89%
    17:00 +3°C° 0 mm 3 mps 728 mmHg 90%
    18:00 +3°C° 0 mm 3 mps 728 mmHg 92%
    19:00 +2°C° 0 mm 3 mps 727 mmHg 93%
    20:00 +2°C° 0 mm 3 mps 727 mmHg 93%
    21:00 +1°C° 0 mm 3 mps 726 mmHg 94%
    22:00 +1°C° 0 mm 3 mps 726 mmHg 94%
    23:00 0°C° 0 mm 4 mps 725 mmHg 93%

    Day after tomorrow, 14 November, Thursday

    Time Temperature Precipitation Wind Pressure Humidity
    00:00 -1°C° 0 mm 4 mps 724 mmHg 93%
    01:00 0°C° 0 mm 4 mps 723 mmHg 92%
    02:00 0°C° 0 mm 4 mps 723 mmHg 91%
    03:00 0°C° 0 mm 5 mps 722 mmHg 89%
    04:00 0°C° 0.5 mm 5 mps 723 mmHg 90%
    05:00 +1°C° 0.5 mm 5 mps 723 mmHg 91%
    06:00 +1°C° 0.5 mm 5 mps 724 mmHg 92%
    07:00 +1°C° 0 mm 4 mps 724 mmHg 90%
    08:00 +3°C° 0 mm 4 mps 724 mmHg 89%
    09:00 +3°C° 0 mm 4 mps 725 mmHg 88%
    10:00 +4°C° 0 mm 3 mps 725 mmHg 87%
    11:00 +4°C° 0 mm 3 mps 724 mmHg 85%
    12:00 +5°C° 0 mm 3 mps 724 mmHg 83%
    13:00 +5°C° 0 mm 3 mps 724 mmHg 85%
    14:00 +5°C° 0 mm 2 mps 724 mmHg 86%
    15:00 +5°C° 0 mm 2 mps 724 mmHg 88%
    16:00 +6°C° 0 mm 1 mps 724 mmHg 89%
    17:00 +5°C° 0 mm 1 mps 724 mmHg 91%
    18:00 +5°C° 0 mm 1 mps 723 mmHg 93%
    19:00 +5°C° 0.2 mm 1 mps 723 mmHg 94%
    20:00 +4°C° 0.2 mm 1 mps 724 mmHg 94%
    21:00 +4°C° 0.2 mm 1 mps 724 mmHg 95%
    22:00 +4°C° 0.3 mm 1 mps 724 mmHg 95%
    23:00 +3°C° 0.3 mm 2 mps 724 mmHg 96%

    15 November, Friday

    Time Temperature Precipitation Wind Pressure Humidity
    00:00 +3°C° 0.3 mm 2 mps 724 mmHg 96%
    01:00 +3°C° 0.6 mm 2 mps 724 mmHg 97%
    02:00 +3°C° 0.6 mm 2 mps 724 mmHg 97%
    03:00 +3°C° 0.6 mm 2 mps 724 mmHg 97%
    04:00 +4°C° 0.6 mm 1 mps 725 mmHg 97%
    05:00 +4°C° 0.6 mm 1 mps 725 mmHg 97%
    06:00 +4°C° 0.6 mm 1 mps 725 mmHg 97%
    07:00 +4°C° 0.4 mm 1 mps 726 mmHg 96%
    08:00 +4°C° 0.4 mm 1 mps 726 mmHg 96%
    09:00 +4°C° 0.4 mm 1 mps 727 mmHg 96%
    10:00 +4°C° 0 mm 1 mps 727 mmHg 92%
    11:00 +5°C° 0 mm 1 mps 727 mmHg 89%
    12:00 +4°C° 0 mm 0 mps 727 mmHg 86%
    13:00 +5°C° 0 mm 0 mps 727 mmHg 85%
    14:00 +6°C° 0 mm 1 mps 727 mmHg 84%
    15:00 +6°C° 0 mm 1 mps 727 mmHg 82%
    16:00 +5°C° 0 mm 1 mps 727 mmHg 85%
    17:00 +3°C° 0 mm 1 mps 727 mmHg 89%
    18:00 +2°C° 0 mm 1 mps 728 mmHg 92%
    19:00 +1°C° 0 mm 0 mps 728 mmHg 92%
    20:00 +1°C° 0 mm 0 mps 729 mmHg 93%
    21:00 0°C° 0 mm 0 mps 729 mmHg 93%
    22:00 +1°C° 0 mm 1 mps 729 mmHg 94%
    23:00 +1°C° 0 mm 1 mps 729 mmHg 95%

    16 November, Saturday

    Time Temperature Precipitation Wind Pressure Humidity
    00:00 +1°C° 0 mm 1 mps 730 mmHg 95%
    01:00 -1°C° 0 mm 2 mps 730 mmHg 96%
    02:00 -1°C° 0 mm 2 mps 730 mmHg 96%
    03:00 -1°C° 0 mm 2 mps 730 mmHg 97%
    04:00 -1°C° 0 mm 2 mps 730 mmHg 96%
    05:00 -2°C° 0 mm 2 mps 731 mmHg 96%
    06:00 -2°C° 0 mm 2 mps 731 mmHg 96%
    07:00 -1°C° 0 mm 2 mps 731 mmHg 93%
    08:00 +1°C° 0 mm 2 mps 732 mmHg 90%
    09:00 +1°C° 0 mm 3 mps 732 mmHg 87%
    10:00 +3°C° 0 mm 3 mps 732 mmHg 83%
    11:00 +4°C° 0 mm 3 mps 732 mmHg 80%
    12:00 +5°C° 0 mm 4 mps 732 mmHg 76%
    13:00 +5°C° 0 mm 3 mps 732 mmHg 78%
    14:00 +5°C° 0 mm 3 mps 732 mmHg 79%
    15:00 +4°C° 0 mm 3 mps 732 mmHg 81%
    16:00 +3°C° 0 mm 3 mps 732 mmHg 85%
    17:00 +3°C° 0 mm 2 mps 733 mmHg 88%
    18:00 +2°C° 0 mm 2 mps 733 mmHg 92%
    19:00 +1°C° 0 mm 2 mps 733 mmHg 93%
    20:00 +1°C° 0 mm 2 mps 733 mmHg 93%
    21:00 +1°C° 0 mm 2 mps 733 mmHg 94%
    22:00 +1°C° 0 mm 2 mps 733 mmHg 94%
    23:00 -1°C° 0 mm 2 mps 733 mmHg 95%

    17 November, Sunday

    Time Temperature Precipitation Wind Pressure Humidity
    00:00 +1°C° 0 mm 1 mps 732 mmHg 95%
    01:00 +1°C° 0 mm 1 mps 732 mmHg 95%
    02:00 +1°C° 0 mm 1 mps 732 mmHg 95%
    03:00 0°C° 0 mm 1 mps 732 mmHg 94%
    04:00 +1°C° 0 mm 1 mps 731 mmHg 94%
    05:00 +1°C° 0 mm 1 mps 731 mmHg 93%
    06:00 0°C° 0 mm 0 mps 731 mmHg 92%
    07:00 +2°C° 0 mm 1 mps 731 mmHg 89%
    08:00 +3°C° 0 mm 1 mps 731 mmHg 86%
    09:00 +4°C° 0 mm 1 mps 731 mmHg 83%
    10:00 +5°C° 0 mm 1 mps 730 mmHg 80%
    11:00 +5°C° 0 mm 2 mps 730 mmHg 77%
    12:00 +6°C° 0 mm 2 mps 729 mmHg 73%
    13:00 +6°C° 0 mm 2 mps 729 mmHg 76%
    14:00 +6°C° 0 mm 2 mps 729 mmHg 79%
    15:00 +5°C° 0 mm 2 mps 729 mmHg 81%
    16:00 +4°C° 0 mm 2 mps 729 mmHg 85%
    17:00 +3°C° 0 mm 2 mps 729 mmHg 88%
    18:00 +2°C° 0 mm 2 mps 729 mmHg 91%
    19:00 +2°C° 0 mm 2 mps 729 mmHg 91%
    20:00 +2°C° 0 mm 2 mps 729 mmHg 91%
    21:00 +2°C° 0 mm 2 mps 729 mmHg 91%
    22:00 +2°C° 0 mm 2 mps 729 mmHg 92%
    23:00 +2°C° 0 mm 2 mps 729 mmHg 92%
    Show more